Location: Saalfelden+am+Steinernen+Meer
(47.4274°N, 12.8411°E)
Time: 03:25:18
(UTC+02:00)

Envisat - Visible Passes

Search period start: 01 July 2022 00:00
Search period end: 11 July 2022 00:00
Orbit: 764 x 765 km, 98.2° (Epoch: 30 June)

Date Brightness Start Highest point End Pass type
(mag) Time Alt. Az. Time Alt. Az. Time Alt. Az.
01 Jul 5.6 04:28:32 10° NE 04:31:46 17° E 04:34:58 10° SE visible
04 Jul 5.7 04:17:27 10° ENE 04:19:50 13° E 04:22:11 10° ESE visible
07 Jul 6.1 04:07:27 10° E 04:07:51 10° E 04:08:16 10° E visible
09 Jul 5.6 04:29:59 10° NE 04:33:22 18° E 04:36:45 10° SE visible
